Showing default

OPS 9314 (IDSCS 4), 2218

Orbit data source: Space-Track

OPS 9314 (IDSCS 4), 2218 is a payload satellite owned by USAF SSD (US) in GEO that was launched on Thu, 16 Jun 1966 UTC via a TITAN IIIC launch vehicle from the Air Force Eastern Test Range (AFETR). Payload-class satellites include a variety of spacecraft equipped with specific instruments for various scientific and technological missions. These include communications satellites like Starlink; space stations such as the ISS; scientific satellites like the Hubble; Earth observation satellites from companies like Planet Labs, Umbra, and HawkEye 360; GPS; miniature CubeSats for education and research; and military/defense satellites.

Loading next visibility...
Identifier
2218, 1966-053E
Orbit
GEO
Country
Flag of USUS
Related business
Manufacturer
Philco-Ford WDL
Mission
Non-operational Defense Communications
Bus & Motor
IDCSP, Unknown motor
Mass
45 kg wet, 45 kg dry
Launch date (UTC)
1966-06-16 (59 years ago)
Launch vehicle
TITAN IIIC
Launch site
Air Force Eastern Test Range (AFETR)
Object type
Payload
Rocket body
Debris
Shape & HBR
Ico Poly, 0.5 m
Radar Cross Section
0.926 m², Medium (>0.1 m² and < 1m²)

Expand to show TLE details & history
Last TLE update: 1 day ago

TLE from 1 day ago
0 OPS 9314 (IDSCS 4)
1 02218U 66053E   25260.12176450 -.00000088  00000-0  00000-0 0  9991
2 02218   8.0517  47.2812 0045225 190.6188 355.9572  1.07584451232469
Epoch: 2025-09-17T02:55Z
TLE epoch observation values (Epoch: 2025-09-17T02:55:20.452Z)
Latitude
-0.89996°
Longitude
-166.38124°
Altitude
33,672.274 km
Speed
3.162 km/s
True Right ascension
15h 35m 01s
True Declination
0° 53' 56"
Sunlit
Object was in daylight at epoch
Visualization orbit readout
Latitude
Unknown
Longitude
Unknown
Altitude
Unknown
Speed
Unknown
Apparent Right ascension
Unknown
Apparent Declination
Unknown
Sunlit
N/A
Visualization observer readout
Local Sidereal Time
00:57:16
Azimuth
Unknown
Elevation
Unknown
Doppler factor
Unknown
Orbital elements
Apogee altitude
34,036.645 km
Perigee altitude
33,672.739 km
Semi-major axis
40,232.829 km
Eccentricity
0.00452
Inclination
8.0517°
RAAN
47.2812°
Arg. of periapsis
190.6188°
True anomaly
355.92046°
Mean anomaly
355.9572°
Eccentric anomaly
355.93885°
Mean motion
0.26895 °/min
Orbital period
1,338.54 mins
BSTAR
0
Loading maneuver chart data...
Computing Atmospheric mass density...
Loading historical data...
Loading historical data...
Loading historical data...
Loading historical data...
Loading historical data...
Loading historical data...
Loading historical data...

Documentation

Showing up to 5 results
|